Weather History for KCDJ - July, 2014

Change the Weather History Date:

Thursday, July 10, 2014

  Actual Average (KIRK) Record (KIRK)
Temperature  
Mean Temperature 74 °F 75 °F  
Max Temperature 82 °F 85 °F 103 °F (1936)
Min Temperature 66 °F 65 °F 51 °F (1956)
Degree Days  
Heating Degree Days 0 0  
Month to date heating degree days 0  
Since 1 June heating degree days 16  
Since 1 July heating degree days 0  
Cooling Degree Days 9 10  
Month to date cooling degree days 94  
Year to date cooling degree days 348  
Since 1 June cooling degree days 286  
Growing Degree Days 24 (Base 50)    
Moisture  
Dew Point 60 °F    
Average Humidity 63    
Maximum Humidity 87    
Minimum Humidity 44    
Precipitation  
Precipitation 0.00 in 0.15 in 2.60 in (1928)
Month to date precipitation 1.33  
Year to date precipitation 20.26  
Sea Level Pressure  
Sea Level Pressure 30.06 in    
Wind  
Wind Speed 4 mph (SE)    
Max Wind Speed 13 mph    
Max Gust Speed 20 mph    
T = Trace of Precipitation, MM = Missing Value Source: NWS Daily Summary

Daily Weather History Graph

Daily Weather History Graph

Search for Another Location

Airport or City:

Trip Planner

Search our weather history database for the weather conditions in past years. The results will help you decide how hot, cold, wet, or windy it might be!

Date:

Astronomy

Jul. 10, 2014 Rise Set
Actual Time 5:55 AM CDT 8:44 PM CDT
Civil Twilight 5:22 AM CDT 9:16 PM CDT
Nautical Twilight 4:42 AM CDT 9:56 PM CDT
Astronomical Twilight 3:56 AM CDT 10:42 PM CDT
Moon 6:57 PM CDT (7/10) 4:06 AM CDT (7/10)
Length of Visible Light 15h 53m
Length of Day
14h 48m
Waxing Gibbous, 95% of the Moon is Illuminated
Jul 10
Waxing Gibbous
Jul 12
Full
Jul 18
Last Quarter
Jul 26
New
Aug 3
First Quarter

Hourly Weather History & Observations

Time (CDT) Temp. Heat Index Dew Point Humidity Pressure Visibility Wind Dir Wind Speed Gust Speed Precip Events Conditions
12:52 AM 66.0 °F - 62.1 °F 87% 30.06 in - Calm Calm - N/A   Unknown
1:52 AM 68.0 °F - 61.0 °F 78% 30.06 in - Calm Calm - N/A   Unknown
2:52 AM 68.0 °F - 59.0 °F 73% 30.04 in - Calm Calm - N/A   Unknown
3:52 AM 66.9 °F - 60.1 °F 79% 30.03 in - SE 3.5 mph - N/A   Unknown
4:52 AM 66.9 °F - 60.1 °F 79% 30.04 in - ESE 3.5 mph - N/A   Unknown
5:52 AM 66.0 °F - 60.1 °F 81% 30.06 in - ESE 4.6 mph - N/A   Unknown
6:52 AM 66.9 °F - 60.1 °F 79% 30.09 in - SSE 5.8 mph - N/A   Unknown
7:52 AM 71.1 °F - 60.1 °F 68% 30.09 in - SSE 5.8 mph - N/A   Unknown
8:52 AM 73.0 °F - 60.1 °F 64% 30.10 in - SSE 6.9 mph - N/A   Unknown
9:52 AM 75.0 °F - 60.1 °F 60% 30.12 in - SSE 5.8 mph - N/A   Unknown
10:52 AM 77.0 °F - 60.1 °F 56% 30.11 in - Variable 6.9 mph - N/A   Unknown
11:52 AM 79.0 °F - 61.0 °F 54% 30.09 in - SE 8.1 mph - N/A   Unknown
12:52 PM 80.1 °F 80.7 °F 59.0 °F 48% 30.09 in - SSE 9.2 mph - N/A   Unknown
1:52 PM 81.0 °F 82.2 °F 63.0 °F 54% 30.06 in - SE 9.2 mph - N/A   Unknown
2:52 PM 81.0 °F 81.7 °F 61.0 °F 50% 30.05 in - ESE 11.5 mph - N/A   Unknown
3:52 PM 82.0 °F 82.0 °F 57.9 °F 44% 30.04 in - SE 12.7 mph 18.4 mph N/A   Unknown
4:52 PM 82.0 °F 82.4 °F 60.1 °F 47% 30.03 in - ESE 5.8 mph 19.6 mph N/A   Unknown
5:52 PM 81.0 °F 81.3 °F 59.0 °F 47% 30.04 in - SE 5.8 mph 17.3 mph N/A   Unknown
6:52 PM 80.1 °F 80.7 °F 59.0 °F 48% 30.04 in - SSE 8.1 mph - N/A   Unknown
7:52 PM 78.1 °F - 60.1 °F 54% 30.04 in - SE 4.6 mph - N/A   Unknown
8:52 PM 75.0 °F - 61.0 °F 62% 30.04 in - ESE 3.5 mph - N/A   Unknown
9:52 PM 73.0 °F - 62.1 °F 68% 30.06 in - ESE 4.6 mph - N/A   Unknown
10:52 PM 72.0 °F - 61.0 °F 68% 30.08 in - ESE 3.5 mph - N/A   Unknown
11:52 PM 71.1 °F - 61.0 °F 70% 30.08 in - SE 4.6 mph - N/A   Unknown